Regional Weather Roundup
Issued by NWS

Home | Current Version | Previous Version | Text Only | Print | Product List | Glossary On
Versions: 1 2 3 4 5 6 7 8 9 10 11 12 13 14 15 16 17 18 19 20 21 22 23 24 25 26 27 28 29 30 31 32 33 34 35 36 37 38 39 40 41 42 43 44 45 46 47 48 49 50
000
ASUS44 KFWD 111801
RWRTX
NORTH TEXAS HOURLY WEATHER ROUNDUP
NATIONAL WEATHER SERVICE FORT WORTH TX
100 PM CDT FRI JUL 11 2014

NOTE: "FAIR" INDICATES FEW OR NO CLOUDS BELOW 12,000 FEET WITH NO
SIGNIFICANT WEATHER AND/OR OBSTRUCTIONS TO VISIBILITY.

TXZ118-119-111900-
DALLAS/FORT WORTH METROPLEX

CITY           SKY/WX    TMP DP  RH WIND       PRES   REMARKS
DFW AIRPORT    SUNNY     93  63  36 S18       30.12F HX  94
6HR MIN TEMP:  75; 6HR MAX TEMP:  93;

DALLAS LOVE    MOSUNNY   92  63  38 S12G20    30.12F HX  93
6HR MIN TEMP:  76; 6HR MAX TEMP:  92;

FTW MEACHAM    SUNNY     93  65  39 S15G22    30.11F HX  95
6HR MIN TEMP:  74; 6HR MAX TEMP:  93;

DAL-EXECUTIVE  SUNNY     92  67  43 S8G18     30.13S HX  95
6HR MIN TEMP:  75; 6HR MAX TEMP:  92;

FTW-ALLIANCE   SUNNY     91  63  39 SW14G24   30.12S HX  92
6HR MIN TEMP:  73; 6HR MAX TEMP:  91;

FTW-NAS-JRB    MOSUNNY   92  64  39 S15G26    30.16F HX  93
6HR MIN TEMP:  75; 6HR MAX TEMP:  93;

FTW-SPINKS     SUNNY     91  64  40 S18       30.15S HX  93
ARLINGTON      SUNNY     91  63  39 S12G29    30.13S HX  92
6HR MIN TEMP:  73; 6HR MAX TEMP:  91;

GRAND PRAIRIE  SUNNY     90  61  37 SE15      30.14F
ADDISON        SUNNY     90  61  37 SW12G17   30.14S
MESQUITE       SUNNY     90  64  43 S9        30.15S HX  91
LANCASTER      SUNNY     90  64  42 S12G17    30.14F HX  91
6HR MIN TEMP:  67; 6HR MAX TEMP:  90;

$$

TXZ091>094-102>105-117-120-121-131>134-111900-
NORTH CENTRAL TEXAS

CITY           SKY/WX    TMP DP  RH WIND       PRES   REMARKS
SHRMAN/DENISON SUNNY     92  61  35 SW15G24   30.14S HX  91
6HR MIN TEMP:  75; 6HR MAX TEMP:  92;

GAINESVILLE    SUNNY     91  60  34 SE16G22   30.14F HX  91
6HR MIN TEMP:  71; 6HR MAX TEMP:  91;

BOWIE          SUNNY     89  60  38 S15G22    30.13S
6HR MIN TEMP:  71; 6HR MAX TEMP:  89;

BRIDGEPORT     SUNNY     89  59  35 S12G20    30.13F
6HR MIN TEMP:  73; 6HR MAX TEMP:  89;

DECATUR        SUNNY     89  60  36 S13G21    30.13F
6HR MIN TEMP:  74; 6HR MAX TEMP:  89;

DENTON         SUNNY     90  61  37 S17G25    30.12F HX  90
6HR MIN TEMP:  72; 6HR MAX TEMP:  90;

MCKINNEY       SUNNY     93  64  38 S15       30.13S HX  94
6HR MIN TEMP:  72; 6HR MAX TEMP:  93;

GREENVILLE     SUNNY     91  63  38 SW10      30.15S HX  92
ROCKWALL       SUNNY     90  65  44 SW13G20   30.13F HX  92
6HR MIN TEMP:  72; 6HR MAX TEMP:  90;

TERRELL        SUNNY     91  64  40 S10       30.14F HX  92
6HR MIN TEMP:  72; 6HR MAX TEMP:  92;

WAXAHACHIE     SUNNY     89  63  41 S15       30.15S HX  90
6HR MIN TEMP:  69; 6HR MAX TEMP:  89;

CLEBURNE       MOSUNNY   88  70  55 S13       30.16S HX  92
GRANBURY       MOSUNNY   91  64  40 S13       30.14S HX  92
6HR MIN TEMP:  73; 6HR MAX TEMP:  91;

$$

TXZ083>090-098>101-113>116-127>130-139>142-154-155-111900-
WESTERN NORTH TEXAS

CITY           SKY/WX    TMP DP  RH WIND       PRES   REMARKS
WICHITA FALLS  MOSUNNY   91  63  39 S18       30.09F HX  92
6HR MIN TEMP:  72; 6HR MAX TEMP:  91;

WF-KICKAPOO    SUNNY     91  57  31 S14G22    30.11S HX  90
6HR MIN TEMP:  72; 6HR MAX TEMP:  92;

VERNON         SUNNY     92  58  32 S15G24    30.10S HX  90
6HR MIN TEMP:  76; 6HR MAX TEMP: 102;

ABILENE        CLOUDY    85  64  49 S15G23    30.14S
6HR MIN TEMP:  70; 6HR MAX TEMP:  86;

ABILENE-DYESS  PTSUNNY   84  65  52 S18       30.13S
6HR MIN TEMP:  70; 6HR MAX TEMP:  84;

MINERAL WELLS  SUNNY     90  63  40 S13G29    30.11F HX  91
6HR MIN TEMP:  69; 6HR MAX TEMP:  90;

STEPHENVILLE   MOSUNNY   87  63  44 S14G22    30.17S
6HR MIN TEMP:  69; 6HR MAX TEMP:  87;

COMANCHE       MOSUNNY   86  65  48 S17       30.15S
6HR MIN TEMP:  71; 6HR MAX TEMP:  87;

BROWNWOOD      CLOUDY    82  66  57 S15G21    30.15S HAZE
COLEMAN        PTSUNNY   85  61  43 S20G25    30.15S
6HR MIN TEMP:  70; 6HR MAX TEMP:  86;

BRADY          MOSUNNY   84  63  48 SE16      30.15S
$$

TXZ143>147-156>162-174-175-111900-
CENTRAL TEXAS

CITY           SKY/WX    TMP DP  RH WIND       PRES   REMARKS
WACO           SUNNY     92  67  43 S15       30.13F HX  95
6HR MIN TEMP:  71; 6HR MAX TEMP:  92;

WACO-TSTC      MOSUNNY   91  66  43 S12       30.13F HX  94
WACO-MCGREGOR  MOSUNNY   91  68  46 SE13G20   30.14F HX  95
6HR MIN TEMP:  70; 6HR MAX TEMP:  91;

HILLSBORO      SUNNY     89  66  47 S9        30.14F HX  91
6HR MIN TEMP:  70; 6HR MAX TEMP:  89;

CORSICANA      SUNNY     91  67  44 S10       30.15F HX  94
6HR MIN TEMP:  72; 6HR MAX TEMP:  91;

MEXIA          MOSUNNY   88  71  57 S10       30.14S HX  93
6HR MIN TEMP:  69; 6HR MAX TEMP:  88;

HEARNE         MOSUNNY   96  69  42 S12       30.14S HX 101
6HR MIN TEMP:  72; 6HR MAX TEMP:  96;

CAMERON        MOSUNNY   91  70  50 S10       30.13F HX  95
6HR MIN TEMP:  69; 6HR MAX TEMP:  91;

TEMPLE         MOSUNNY   91  66  43 S16       30.14F HX  94
6HR MIN TEMP:  70; 6HR MAX TEMP:  91;

KILLEEN        CLOUDY    86  70  58 S9G18     30.15S HX  90
KILLEEN-SKYLRK PTSUNNY   90  68  48 S15       30.14F HX  93
6HR MIN TEMP:  70; 6HR MAX TEMP:  90;

FORT HOOD      PTSUNNY   89  68  49 S14       30.14F HX  93
6HR MIN TEMP:  71; 6HR MAX TEMP:  89;

GATESVILLE     MOSUNNY   88  70  55 S8G17     30.16F HAZE    HX  92
HAMILTON       MOSUNNY   87  66  49 S15G22    30.17S
6HR MIN TEMP:  68; 6HR MAX TEMP:  87;

LAMPASAS       PTSUNNY   82  70  68 S12       30.16S
6HR MIN TEMP:  71; 6HR MAX TEMP:  82;

$$

TXZ095>097-106>112-122>126-135>138-148>153-164>167-111900-
EAST TEXAS

CITY           SKY/WX    TMP DP  RH WIND       PRES   REMARKS
PARIS          SUNNY     91  66  43 SW14      30.14F HX  94
6HR MIN TEMP:  73; 6HR MAX TEMP:  91;

SULPHUR SPRNGS SUNNY     91  63  39 S8        30.17S HX  91
6HR MIN TEMP:  76; 6HR MAX TEMP:  91;

CLARKSVILLE    SUNNY     93  63  36 SW6       30.14S HX  94
6HR MIN TEMP:  75; 6HR MAX TEMP:  93;

MOUNT PLEASANT SUNNY     92  63  38 W8        30.15F HX  92
6HR MIN TEMP:  70; 6HR MAX TEMP:  92;

GILMER         SUNNY     90  68  48 W3        30.17  HX  93
MINEOLA        SUNNY     90  66  45 SW8       30.16F HX  92
TYLER          SUNNY     89  69  51 SW8       30.16S HX  93
6HR MIN TEMP:  73; 6HR MAX TEMP:  90;

LONGVIEW       SUNNY     91  68  46 CALM      30.14F HX  95
6HR MIN TEMP:  72; 6HR MAX TEMP:  91;

ATHENS         MOSUNNY   88  70  55 S9        30.14F HX  92
PALESTINE      SUNNY     90  63  41 S6        30.17F HX  90
JACKSONVILLE   MOSUNNY   88  71  56 S5        30.19S HX  94
HENDERSON      MOSUNNY   91  68  46 SW3       30.16F HX  95
6HR MIN TEMP:  71; 6HR MAX TEMP:  92;

NACOGDOCHES    MOSUNNY   90  72  55 W7        30.16S HX  96
6HR MIN TEMP:  68; 6HR MAX TEMP:  90;

LUFKIN         MOSUNNY   93  73  52 SW6       30.15S HX 102
6HR MIN TEMP:  73; 6HR MAX TEMP:  94;

$$

SUPPLEMENTAL OBSERVATIONS (CENTRAL)

CITY           SKY/WX    TMP DP  RH WIND       PRES   REMARKS
$$

SUPPLEMENTAL OBSERVATIONS (WEST)

CITY           SKY/WX    TMP DP  RH WIND       PRES   REMARKS
$$

SUPPLEMENTAL OBSERVATIONS (EAST)

CITY           SKY/WX    TMP DP  RH WIND       PRES   REMARKS
$$

SUPPLEMENTAL OBSERVATIONS ARE A COLLECTION OF AUTOMATED INSTRUMENTS
THAT ARE MAINTAINED BY A VARIETY OF FEDERAL AND STATE AGENCIES.
CERTAIN ELEMENTS...SUCH AS HUMIDITY VALUES AND SUSTAINED WIND
SPEEDS...MAY BE APPROXIMATED.




USA.gov is the U.S. government's official web portal to all federal, state and local government web resources and services.